GW5290 Weather Reports


time (UTC)temp
F
wind
direction
speed
knots
gust
knots
rain 1hr
in
rain 24hr
in
rain mn
in
humidity
%
barometer
mb
20260504232012 57 141 0.9 5.2 0.00 0.00 0.00 61 1004.9
20260504231522 58 107 0.9 6.1 0.00 0.00 0.00 59 1004.7
20260504231006 59 141 2.6 6.1 0.00 0.00 0.00 56 1004.6
20260504230510 62 119 1.7 6.1 0.00 0.00 0.00 51 1004.6
20260504230008 65 135 1.7 5.2 0.00 0.00 0.00 47 1004.6
20260504225508 67 140 0.9 7.0 0.00 0.00 0.00 38 1004.5
20260504225007 67 232 1.7 7.0 0.00 0.00 0.00 38 1004.5
20260504224508 67 263 1.7 7.0 0.00 0.00 0.00 38 1004.4
20260504224009 67 251 1.7 9.6 0.00 0.00 0.00 35 1004.3
20260504223512 67 221 1.7 9.6 0.00 0.00 0.00 36 1004.2
20260504223009 67 248 0.9 9.6 0.00 0.00 0.00 37 1004.2
20260504222508 68 219 3.5 9.6 0.00 0.00 0.00 37 1004.2
20260504222010 68 214 0.9 6.1 0.00 0.00 0.00 36 1004.2
20260504221510 68 219 1.7 6.1 0.00 0.00 0.00 36 1004.2
20260504221009 69 236 0.9 7.0 0.00 0.00 0.00 36 1004.2
20260504220504 69 216 0.9 7.0 0.00 0.00 0.00 35 1004.2
20260504220018 69 248 1.7 9.6 0.00 0.00 0.00 36 1004.2
20260504215507 69 255 6.1 9.6 0.00 0.00 0.00 34 1004.2
20260504215004 69 208 0.9 8.7 0.00 0.00 0.00 34 1004.2
20260504214515 69 292 3.5 12.2 0.00 0.00 0.00 35 1004.1
20260504214010 69 286 6.1 12.2 0.00 0.00 0.00 34 1004.2
20260504213505 69 281 5.2 13.0 0.00 0.00 0.00 35 1004.2
20260504213014 69 213 3.5 13.0 0.00 0.00 0.00 35 1004.1
20260504212509 69 244 2.6 13.0 0.00 0.00 0.00 36 1004.0
20260504212008 70 257 6.1 13.0 0.00 0.00 0.00 34 1004.2
20260504211518 70 227 2.6 7.0 0.00 0.00 0.00 35 1004.1
20260504211010 70 275 1.7 10.4 0.00 0.00 0.00 35 1004.0
20260504210507 70 262 2.6 13.0 0.00 0.00 0.00 35 1004.0
20260504210020 70 260 6.1 13.0 0.00 0.00 0.00 36 1004.0
20260504205510 69 255 2.6 7.8 0.00 0.00 0.00 38 1004.1
20260504205010 69 254 1.7 11.3 0.00 0.00 0.00 38 1004.1
20260504204517 69 236 0.9 11.3 0.00 0.00 0.00 37 1004.0
20260504204006 69 236 2.6 11.3 0.00 0.00 0.00 36 1004.1
20260504203503 70 200 2.6 7.8 0.00 0.00 0.00 37 1004.1
20260504203028 69 269 2.6 12.2 0.00 0.00 0.00 37 1004.1
20260504202513 69 242 2.6 12.2 0.00 0.00 0.00 37 1004.1
20260504202006 69 229 4.3 11.3 0.00 0.00 0.00 37 1004.2
20260504201521 69 232 3.5 11.3 0.00 0.00 0.00 38 1004.3
20260504201013 68 252 3.5 10.4 0.00 0.00 0.00 38 1004.4
20260504200509 67 236 5.2 15.6 0.00 0.00 0.00 38 1004.4
20260504200024 68 265 3.5 15.6 0.00 0.00 0.00 37 1004.4
20260504195510 68 266 3.5 13.9 0.00 0.00 0.00 36 1004.4
20260504195008 69 309 3.5 15.6 0.00 0.00 0.00 36 1004.5
20260504194533 69 247 4.3 15.6 0.00 0.00 0.00 36 1004.5
20260504194010 69 250 4.3 14.8 0.00 0.00 0.00 36 1004.5
20260504193507 70 257 5.2 10.4 0.00 0.00 0.00 37 1004.5
20260504193023 70 282 3.5 9.6 0.00 0.00 0.00 35 1004.4
20260504192506 70 187 0.9 7.8 0.00 0.00 0.00 38 1004.3
20260504192008 69 245 2.6 7.8 0.00 0.00 0.00 37 1004.3
20260504191528 69 205 3.5 7.8 0.00 0.00 0.00 40 1004.4
20260504191004 68 226 3.5 16.5 0.00 0.00 0.00 39 1004.4
20260504190508 68 53 2.6 16.5 0.00 0.00 0.00 40 1004.5
20260504190031 67 205 7.0 12.2 0.00 0.00 0.00 40 1004.5
20260504185509 65 264 2.6 5.2 0.00 0.00 0.00 42 1004.5
20260504185009 64 352 1.7 6.1 0.00 0.00 0.00 46 1004.5
20260504184533 63 179 0.9 11.3 0.00 0.00 0.00 42 1004.5
20260504184006 63 252 3.5 11.3 0.00 0.00 0.00 42 1004.6
20260504183510 64 215 1.7 8.7 0.00 0.00 0.00 40 1004.7
20260504183028 64 244 1.7 8.7 0.00 0.00 0.00 40 1004.6
20260504182506 64 225 2.6 7.8 0.00 0.00 0.00 40 1004.5
20260504182011 64 115 1.7 11.3 0.00 0.00 0.00 39 1004.5
20260504181525 64 274 2.6 12.2 0.00 0.00 0.00 39 1004.5
20260504181010 65 300 3.5 13.9 0.00 0.00 0.00 38 1004.5
20260504180508 65 246 4.3 13.9 0.00 0.00 0.00 38 1004.5
20260504180033 65 259 2.6 13.0 0.00 0.00 0.00 39 1004.5
20260504175507 65 228 4.3 11.3 0.00 0.00 0.00 39 1004.5
20260504175010 65 257 3.5 10.4 0.00 0.00 0.00 38 1004.5
20260504174528 65 230 3.5 18.2 0.00 0.00 0.00 38 1004.5
20260504174010 65 185 1.7 18.2 0.00 0.00 0.00 38 1004.4
20260504173508 65 204 4.3 13.0 0.00 0.00 0.00 38 1004.4
20260504173028 65 299 3.5 15.6 0.00 0.00 0.00 38 1004.4
20260504172508 65 207 4.3 16.5 0.00 0.00 0.00 35 1004.3
20260504172011 66 199 6.1 19.1 0.00 0.00 0.00 34 1004.3
20260504171527 66 216 3.5 19.1 0.00 0.00 0.00 34 1004.3
20260504171012 67 297 8.7 18.2 0.00 0.00 0.00 34 1004.1
20260504170511 67 238 7.0 15.6 0.00 0.00 0.00 36 1004.1
20260504151010 62 243 7.0 10.4 0.00 0.00 0.00 48 1005.5
20260504150510 61 229 6.1 10.4 0.00 0.00 0.00 49 1005.6
20260504141015 58 257 4.3 10.4 0.00 0.00 0.00 53 1006.5
20260504140506 58 214 5.2 9.6 0.00 0.00 0.00 55 1006.6
20260504130512 53 217 4.3 14.8 0.00 0.00 0.00 61 1007.1
20260504110509 44 215 5.2 10.4 0.00 0.01 0.00 65 1007.6
20260504100510 41 253 0.9 5.2 0.00 0.01 0.00 68 1007.4
20260504082008 38 268 1.7 8.7 0.00 0.01 0.00 73 1007.3
20260504081525 38 241 2.6 8.7 0.00 0.01 0.00 75 1007.3
20260504081003 37 260 0.9 7.0 0.00 0.01 0.00 75 1007.3
20260504080509 37 230 2.6 7.0 0.00 0.01 0.00 75 1007.3
20260504050514 33 240 0.0 3.5 0.00 0.01 0.00 81 1007.0
20260504050016 33 240 0.9 3.5 0.00 0.01 0.00 81 1007.0
20260504045509 34 275 1.7 5.2 0.00 0.01 0.00 80 1007.0
20260504045010 34 243 2.6 5.2 0.00 0.01 0.00 81 1007.1
20260504044519 34 244 1.7 2.6 0.00 0.01 0.00 80 1007.1
20260504044008 34 237 0.9 2.6 0.00 0.01 0.00 79 1007.1
20260504043510 34 240 0.9 2.6 0.00 0.01 0.00 79 1007.1
20260504043020 34 234 0.9 2.6 0.00 0.01 0.00 79 1007.2
20260504042507 35 238 1.7 2.6 0.00 0.01 0.00 79 1007.1
20260504042011 35 236 0.9 2.6 0.00 0.01 0.00 78 1007.1
20260504041519 35 260 0.0 1.7 0.00 0.01 0.00 78 1007.1
20260504041008 35 233 0.9 1.7 0.00 0.01 0.00 76 1007.1
20260504040511 36 236 0.0 1.7 0.00 0.02 0.00 76 1007.1
20260504040019 36 257 0.0 1.7 0.00 0.02 0.00 77 1007.0
20260504035510 36 246 0.9 1.7 0.00 0.02 0.02 75 1007.1
20260504035007 37 246 0.0 0.9 0.00 0.02 0.02 74 1007.0
20260504034535 37 245 0.0 1.7 0.00 0.02 0.02 72 1006.9
20260504034009 37 245 0.0 2.6 0.00 0.02 0.02 71 1006.9
20260504033507 37 246 0.9 2.6 0.00 0.02 0.02 71 1007.0
20260504033027 38 217 0.9 2.6 0.00 0.02 0.02 71 1007.0
20260504032510 38 222 0.0 2.6 0.00 0.02 0.02 71 1007.0
20260504032010 38 235 0.0 2.6 0.00 0.02 0.02 71 1007.0
20260504031524 38 237 0.9 2.6 0.00 0.02 0.02 72 1006.9
20260504031011 38 219 0.9 2.6 0.00 0.02 0.02 72 1006.8
20260504030510 38 217 0.9 5.2 0.00 0.02 0.02 72 1006.9
20260504030034 38 227 1.7 5.2 0.00 0.02 0.02 73 1006.9
20260504025508 38 234 0.9 2.6 0.00 0.02 0.02 71 1006.8
20260504025007 38 224 1.7 2.6 0.00 0.02 0.02 70 1006.8
20260504024523 38 225 0.9 2.6 0.00 0.02 0.02 69 1006.8
20260504024013 38 234 0.9 2.6 0.00 0.02 0.02 69 1006.8
20260504023507 39 245 0.9 2.6 0.00 0.02 0.02 69 1006.8
20260504023024 39 245 0.9 2.6 0.00 0.02 0.02 68 1006.6
20260504022508 39 235 0.9 3.5 0.00 0.02 0.02 68 1006.7
20260504022009 39 252 0.9 3.5 0.00 0.02 0.02 68 1006.7
20260504021524 39 218 0.9 2.6 0.00 0.02 0.02 67 1006.7
20260504021009 39 243 0.9 2.6 0.00 0.02 0.02 66 1006.8
20260504020506 40 242 0.9 2.6 0.00 0.02 0.02 67 1006.8
20260504020025 40 246 0.0 4.3 0.00 0.02 0.02 65 1006.8
20260504015511 40 246 0.9 4.3 0.00 0.02 0.02 66 1006.7
20260504015012 40 246 0.9 3.5 0.00 0.02 0.02 66 1006.7
20260504014531 40 250 0.9 3.5 0.00 0.02 0.02 65 1006.7
20260504014010 41 234 0.9 3.5 0.00 0.03 0.02 64 1006.7
20260504013507 41 245 0.9 3.5 0.00 0.03 0.02 64 1006.7
20260504013026 41 249 0.9 3.5 0.00 0.03 0.02 63 1006.6
20260504012507 41 246 0.9 2.6 0.00 0.03 0.02 63 1006.6
20260504012010 42 232 0.0 3.5 0.00 0.03 0.02 60 1006.5
20260504011526 42 277 0.0 3.5 0.00 0.04 0.02 60 1006.4
20260504011011 42 186 0.0 3.5 0.00 0.04 0.02 60 1006.3
20260504010512 42 248 0.0 2.6 0.00 0.04 0.02 60 1006.2
20260504010026 42 213 0.9 8.7 0.00 0.04 0.02 60 1006.1
20260504005508 42 259 1.7 8.7 0.00 0.05 0.02 59 1006.1
20260504005009 43 255 0.0 2.6 0.00 0.05 0.02 58 1006.1
20260504004529 43 276 0.0 2.6 0.00 0.06 0.02 58 1006.0
20260504004010 43 222 0.0 2.6 0.00 0.06 0.02 59 1005.9
20260504003510 44 254 0.9 2.6 0.00 0.06 0.02 59 1005.8
20260504003028 44 257 0.9 2.6 0.00 0.06 0.02 57 1005.7
20260504002508 44 254 0.0 6.1 0.00 0.06 0.02 57 1005.7
20260504002008 44 280 0.9 6.1 0.00 0.06 0.02 56 1005.6
20260504001527 45 250 0.9 3.5 0.00 0.06 0.02 56 1005.5
20260504001010 45 308 0.9 3.5 0.00 0.06 0.02 54 1005.4
20260504000510 45 296 0.0 2.6 0.00 0.06 0.02 53 1005.3
20260504000027 46 294 0.0 2.6 0.00 0.06 0.02 52 1005.2
20260503235507 46 284 0.9 4.3 0.00 0.07 0.02 52 1005.1
20260503235007 47 333 0.0 9.6 0.00 0.07 0.02 51 1005.0
20260503234532 47 311 1.7 9.6 0.00 0.07 0.02 50 1004.9
20260503234008 47 262 3.5 7.8 0.00 0.07 0.02 49 1004.9
20260503233508 47 338 2.6 8.7 0.00 0.07 0.02 50 1004.7
20260503233028 48 308 0.9 8.7 0.00 0.07 0.02 47 1004.7
20260503232509 48 334 2.6 9.6 0.00 0.07 0.02 46 1004.5